| time (UTC) | temp F | wind direction | speed MPH | gust MPH | rain 1hr in | rain 24hr in | rain mn in | humidity % | barometer mb |
| 20260904171723 | 75 | 120 | 0.0 | 1.0 | 0.00 | 1.36 | 0.43 | 41 | 1016.2 |
| 20260904170708 | 74 | 120 | 0.0 | 0.0 | 0.00 | 1.36 | 0.43 | 32 | 1016.3 |
| 20260904163355 | 74 | 100 | 0.0 | 0.0 | 0.00 | 1.36 | 0.43 | 49 | 1016.4 |
| 20260904162354 | 75 | 100 | 0.0 | 0.0 | 0.05 | 1.36 | 0.43 | 58 | 1016.5 |
| 20260904161412 | 77 | 99 | 0.0 | 5.0 | 0.13 | 1.36 | 0.43 | 69 | 1017.3 |
| 20260904160426 | 78 | 108 | 0.0 | 1.0 | 0.00 | 1.34 | 0.40 | 73 | 1016.7 |
| 20260904155411 | 79 | 105 | 0.0 | 2.0 | 0.00 | 1.34 | 0.40 | 75 | 1016.7 |
| 20260904154432 | 79 | 110 | 0.0 | 1.0 | 0.00 | 1.34 | 0.40 | 74 | 1016.3 |
| 20260904153441 | 79 | 106 | 0.0 | 1.0 | 0.00 | 1.34 | 0.40 | 75 | 1016.3 |
| 20260904152502 | 79 | 107 | 0.0 | 0.0 | 0.00 | 1.34 | 0.40 | 75 | 1016.4 |
| 20260904151527 | 79 | 44 | 0.0 | 3.0 | 0.00 | 1.34 | 0.40 | 75 | 1016.3 |
| 20260904150502 | 78 | 35 | 0.0 | 2.0 | 0.00 | 1.34 | 0.40 | 73 | 1016.2 |
| 20260904145503 | 77 | 67 | 0.0 | 0.0 | 0.00 | 1.34 | 0.40 | 73 | 1016.2 |
| 20260904144445 | 77 | 54 | 0.0 | 1.0 | 0.00 | 1.34 | 0.40 | 73 | 1016.1 |
| 20260904143443 | 77 | 56 | 0.0 | 0.0 | 0.00 | 1.34 | 0.40 | 74 | 1016.2 |
| 20260904142451 | 78 | 56 | 0.0 | 0.0 | 0.00 | 1.34 | 0.40 | 75 | 1016.3 |
| 20260904141429 | 79 | 314 | 0.0 | 0.0 | 0.00 | 1.34 | 0.40 | 75 | 1016.3 |
| 20260904140402 | 79 | 34 | 0.0 | 1.0 | 0.00 | 1.34 | 0.40 | 75 | 1016.3 |
| 20260904135401 | 78 | 101 | 0.0 | 0.0 | 0.00 | 1.34 | 0.40 | 74 | 1016.3 |
| 20260904134332 | 77 | 101 | 0.0 | 0.0 | 0.00 | 1.34 | 0.40 | 73 | 1016.2 |
| 20260904133351 | 76 | 101 | 0.0 | 0.0 | 0.00 | 1.34 | 0.40 | 67 | 1016.1 |
| 20260904132401 | 75 | 101 | 0.0 | 0.0 | 0.00 | 1.34 | 0.40 | 65 | 1016.1 |
| 20260904131411 | 73 | 101 | 0.0 | 0.0 | 0.00 | 1.34 | 0.40 | 36 | 1016.5 |
| 20260904125217 | 71 | 101 | 0.0 | 0.0 | 0.00 | 1.34 | 0.40 | 1 | 1016.7 |
| 20260904123031 | 69 | 101 | 0.0 | 0.0 | 0.00 | 1.35 | 0.40 | 1 | 1016.9 |
| 20260904122018 | 69 | 101 | 0.0 | 0.0 | 0.00 | 1.35 | 0.40 | 1 | 1017.0 |
| 20260904120944 | 69 | 101 | 0.0 | 0.0 | 0.00 | 1.35 | 0.40 | 1 | 1016.6 |
| 20260904115913 | 68 | 101 | 0.0 | 0.0 | 0.00 | 1.35 | 0.40 | 1 | 1016.6 |
| 20260904114051 | 68 | 101 | 0.0 | 0.0 | 0.00 | 1.35 | 0.40 | 1 | 1016.3 |
| 20260904052411 | 67 | 48 | 0.0 | 0.0 | 0.00 | 0.93 | 0.00 | 1 | 1015.2 |
| 20260904051422 | 67 | 46 | 0.0 | 0.0 | 0.00 | 0.93 | 0.00 | 1 | 1015.1 |
| 20260904050436 | 68 | 46 | 0.0 | 2.0 | 0.00 | 0.93 | 0.00 | 1 | 1015.1 |
| 20260904045454 | 68 | 51 | 0.0 | 3.0 | 0.00 | 0.93 | 0.00 | 1 | 1015.4 |
| 20260904044424 | 68 | 42 | 1.0 | 3.0 | 0.00 | 0.93 | 0.00 | 1 | 1015.8 |
| 20260904041204 | 67 | 34 | 0.0 | 1.0 | 0.00 | 0.93 | 0.00 | 1 | 1016.0 |
| 20260904040132 | 67 | 51 | 0.0 | 2.0 | 0.00 | 0.93 | 0.00 | 1 | 1016.0 |
| 20260904034022 | 67 | 53 | 0.0 | 0.0 | 0.00 | 0.93 | 0.94 | 1 | 1016.2 |
| 20260904033042 | 67 | 51 | 0.0 | 1.0 | 0.00 | 0.93 | 0.94 | 1 | 1016.3 |
| 20260904032019 | 67 | 51 | 0.0 | 3.0 | 0.00 | 0.93 | 0.94 | 1 | 1016.6 |
| 20260904030952 | 67 | 52 | 0.0 | 2.0 | 0.00 | 0.93 | 0.94 | 1 | 1016.5 |
| 20260904025955 | 67 | 46 | 0.0 | 5.0 | 0.00 | 0.93 | 0.94 | 1 | 1016.7 |
| 20260904025017 | 67 | 22 | 0.0 | 1.0 | 0.00 | 0.93 | 0.94 | 1 | 1016.9 |
| 20260904022940 | 68 | 50 | 0.0 | 0.0 | 0.00 | 0.93 | 0.94 | 1 | 1016.5 |
| 20260904021929 | 68 | 50 | 0.0 | 0.0 | 0.00 | 0.93 | 0.94 | 1 | 1016.8 |
| 20260904020921 | 68 | 49 | 0.0 | 0.0 | 0.00 | 0.93 | 0.94 | 1 | 1017.0 |
| 20260904015854 | 68 | 49 | 0.0 | 0.0 | 0.00 | 0.93 | 0.94 | 1 | 1017.4 |
| 20260904013714 | 68 | 49 | 0.0 | 0.0 | 0.00 | 0.92 | 0.93 | 4 | 1017.5 |
| 20260904012734 | 68 | 119 | 0.0 | 0.0 | 0.04 | 0.92 | 0.93 | 4 | 1017.4 |
| 20260904011705 | 68 | 130 | 0.0 | 0.0 | 0.17 | 0.92 | 0.93 | 18 | 1017.4 |
| 20260904010646 | 69 | 145 | 0.0 | 2.0 | 0.40 | 0.89 | 0.90 | 19 | 1018.2 |
| 20260904005635 | 69 | 138 | 4.0 | 14.0 | 3.60 | 0.49 | 0.52 | 35 | 1019.2 |
| 20260904003500 | 70 | 338 | 0.0 | 0.0 | 0.05 | 0.21 | 0.21 | 47 | 1016.2 |
| 20260904002524 | 70 | 161 | 0.0 | 0.0 | 0.18 | 0.21 | 0.21 | 58 | 1015.9 |
| 20260904001527 | 71 | 161 | 0.0 | 2.0 | 0.00 | 0.02 | 0.02 | 61 | 1016.1 |
| 20260903235413 | 72 | 193 | 0.0 | 4.0 | 0.00 | 0.02 | 0.02 | 68 | 1015.7 |
| 20260903234422 | 72 | 191 | 0.0 | 0.0 | 0.00 | 0.02 | 0.02 | 68 | 1015.9 |
| 20260903232334 | 73 | 166 | 0.0 | 0.0 | 0.00 | 0.02 | 0.02 | 72 | 1015.6 |
| 20260903231346 | 73 | 129 | 0.0 | 0.0 | 0.00 | 0.02 | 0.02 | 74 | 1015.7 |
| 20260903230332 | 75 | 186 | 1.0 | 18.0 | 0.00 | 0.02 | 0.02 | 73 | 1016.0 |
| 20260903225344 | 77 | 140 | 2.0 | 18.0 | 0.00 | 0.02 | 0.02 | 74 | 1016.6 |
| 20260903224338 | 80 | 141 | 0.0 | 3.0 | 0.00 | 0.02 | 0.02 | 72 | 1016.3 |
| 20260903223337 | 82 | 94 | 0.0 | 3.0 | 0.00 | 0.01 | 0.01 | 75 | 1015.5 |
| 20260903222334 | 84 | 101 | 1.0 | 8.0 | 0.00 | 0.01 | 0.01 | 74 | 1015.1 |
| 20260903220207 | 85 | 53 | 2.0 | 4.0 | 0.00 | 0.01 | 0.01 | 72 | 1013.7 |
| 20260903215224 | 86 | 47 | 1.0 | 3.0 | 0.00 | 0.01 | 0.01 | 71 | 1014.1 |
| 20260903211928 | 87 | 53 | 1.0 | 8.0 | 0.00 | 0.01 | 0.01 | 70 | 1013.8 |
| 20260903210855 | 87 | 43 | 0.0 | 3.0 | 0.00 | 0.01 | 0.01 | 70 | 1013.4 |
| 20260903205919 | 88 | 92 | 1.0 | 5.0 | 0.00 | 0.01 | 0.01 | 68 | 1013.5 |
| 20260903204903 | 88 | 96 | 2.0 | 9.0 | 0.00 | 0.01 | 0.01 | 68 | 1013.9 |
| 20260903203840 | 88 | 49 | 2.0 | 9.0 | 0.00 | 0.01 | 0.01 | 66 | 1014.2 |
| 20260903202833 | 88 | 42 | 1.0 | 8.0 | 0.00 | 0.01 | 0.01 | 68 | 1014.2 |
| 20260903200734 | 88 | 49 | 1.0 | 7.0 | 0.00 | 0.01 | 0.01 | 67 | 1014.5 |
| 20260903195751 | 88 | 96 | 1.0 | 5.0 | 0.00 | 0.01 | 0.01 | 67 | 1014.5 |
| 20260903194728 | 88 | 103 | 1.0 | 6.0 | 0.00 | 0.01 | 0.01 | 66 | 1014.6 |
| 20260903193712 | 88 | 102 | 2.0 | 6.0 | 0.00 | 0.01 | 0.01 | 67 | 1014.9 |
| 20260903192704 | 87 | 50 | 2.0 | 7.0 | 0.00 | 0.01 | 0.01 | 66 | 1015.0 |
| 20260903191708 | 87 | 46 | 2.0 | 8.0 | 0.00 | 0.01 | 0.01 | 67 | 1015.2 |
| 20260903185514 | 86 | 57 | 2.0 | 8.0 | 0.00 | 0.01 | 0.01 | 68 | 1015.7 |
| 20260903184507 | 86 | 41 | 2.0 | 7.0 | 0.00 | 0.01 | 0.01 | 68 | 1016.0 |
| 20260903183515 | 86 | 20 | 2.0 | 7.0 | 0.00 | 0.01 | 0.01 | 66 | 1015.9 |
| 20260903182527 | 85 | 49 | 2.0 | 6.0 | 0.00 | 0.01 | 0.01 | 68 | 1016.1 |
| 20260903180339 | 84 | 47 | 1.0 | 7.0 | 0.00 | 0.01 | 0.01 | 69 | 1016.6 |
| 20260903175326 | 83 | 47 | 2.0 | 9.0 | 0.00 | 0.01 | 0.01 | 68 | 1016.6 |
| 20260903174332 | 83 | 60 | 2.0 | 9.0 | 0.00 | 0.01 | 0.01 | 70 | 1016.8 |